Regional Weather Roundup
Issued by NWS

Home | Current Version | Previous Version | Graphics & Text | Print | Product List | Glossary On
Versions: 1 2 3 4 5 6 7 8 9 10 11 12 13 14 15 16 17 18 19 20 21 22 23 24 25 26 27
000
ASUS45 KPSR 230110
RWRAZ

ARIZONA HOURLY REGIONAL WEATHER ROUNDUP
NATIONAL WEATHER SERVICE PHOENIX AZ
600 PM MST FRI SEP 22 2017

NOTE: FAIR INDICATES FEW OR NO CLOUDS BELOW 12,000 FEET WITH NO
SIGNIFICANT WEATHER AND/OR OBSTRUCTIONS TO VISIBILITY.

AZZ001>003-036-230200-
NORTHWEST ARIZONA

CITY           SKY/WX    TMP DP  RH WIND       PRES   REMARKS
BULLHEAD CITY  CLEAR     82  21  10 SW5       29.67F
KINGMAN        CLEAR     69  17  13 SW17      29.79S
$$

AZZ004>008-015-016-018-230200-
NORTH CENTRAL ARIZONA

CITY           SKY/WX    TMP DP  RH WIND       PRES   REMARKS
GRAND CANYON   CLEAR     60  16  18 SW16G26   29.90R
WILLIAMS       CLEAR     59  14  17 S18G25    29.91S
PRESCOTT       FAIR      64  12  13 SW15      29.86S
FLAGSTAFF      PTCLDY    55  35  47 SW16      29.94S
PAYSON           N/A     68  39  34 SW10G16   29.89S
PAGE           CLEAR     72  22  15 NW12G21   29.73R
$$

AZZ009>014-017-230200-
NORTHEAST ARIZONA

CITY           SKY/WX    TMP DP  RH WIND       PRES   REMARKS
WINSLOW        FAIR      71  34  25 SW22G32   29.84R
SAINT JOHNS    PTCLDY    73  37  27 SW12      29.87R
WINDOW ROCK    PTCLDY    68  25  19 SW21G29   29.93S
SHOW LOW       CLEAR     66  36  32 SW17      29.93R
$$

AZZ540-542>544-546-548-230200-
GREATER PHOENIX AREA

CITY           SKY/WX    TMP DP  RH WIND       PRES   REMARKS
PHOENIX        FAIR      85  42  22 NW10      29.65F
BUCKEYE        CLEAR     82  27  13 W7        29.67F
GLENDALE       PTCLDY    84  37  18 S10       29.67F
LUKE AFB       CLEAR     85  38  19 SW9       29.65F
DEER VALLEY    CLEAR     83  38  20 W9        29.67F
SCOTTSDALE     CLEAR     83  41  22 W9        29.69F
MESA-FALCON    PTCLDY    84  48  28 W10G16    29.67F
MESA-GATEWAY   PTCLDY    84  46  26 NW14      29.67F
CHANDLER       PTCLDY    86  45  23 W14       29.66S
$$

AZZ539-553-230200-
SOUTHWEST MARICOPA COUNTY AND PINAL COUNTY

CITY           SKY/WX    TMP DP  RH WIND       PRES   REMARKS
CASA GRANDE    NOT AVBL
GILA BEND      PTCLDY    83  23  11 W13       29.65S
$$

AZZ503-504-507>509-230200-
SOUTHEAST ARIZONA

CITY           SKY/WX    TMP DP  RH WIND       PRES   REMARKS
TUCSON         MOCLDY    85  39  19 W15G21    29.75F
DAVIS-MONTHAN  CLOUDY    84  41  21 W12G18    29.74S
RYAN FIELD     MOCLDY    86  41  20 MISG      29.74F
NOGALES        MOCLDY    79  48  33 SW13      29.83S
SIERRA VISTA   PTCLDY    78  49  35 SW12      29.88S
DOUGLAS        PTCLDY    83  42  23 SW16G24   29.83S
SAFFORD        PTCLDY    85  45  24 NW15      29.72S
$$

AZZ532-230200-
SOUTHWEST ARIZONA

CITY           SKY/WX    TMP DP  RH WIND       PRES   REMARKS
YUMA           CLEAR     82  23  11 W9        29.67F
$$

CAZ041-043-047-048-061-525>527-560>570-230200-
SOUTHERN CALIFORNIA

CITY           SKY/WX    TMP DP  RH WIND       PRES   REMARKS
DOWNTOWN L.A.  CLEAR     70  51  51 MISG      29.80S
L.A. AIRPORT   PTCLDY    66  54  65 W16       29.81F
SAN DIEGO      PTCLDY    70  54  56 W12       29.83S
BURBANK        CLEAR     68  46  45 SE10      29.79S
ONTARIO        PTCLDY    69  48  47 SW14      29.79S
RIVERSIDE      PTCLDY    70  50  49 W13       29.79S
PALM SPRINGS   CLEAR     81  35  19 NW16      29.70F
EL CENTRO NAS  CLEAR     83  31  15 N5        29.68F
IMPERIAL       CLEAR     84  36  18 N7        29.66F
BLYTHE         CLEAR     82  26  13 SW7       29.68S
NEEDLES        CLEAR     83  22  10 E6        29.68F
$$

NVZ020-UTZ003-230200-
SOUTHERN NEVADA-UTAH

CITY           SKY/WX    TMP DP  RH WIND       PRES   REMARKS
LAS VEGAS      PTCLDY    74  25  16 W6        29.74F
SALT LAKE CITY MOCLDY    51  40  65 N10       29.95R
$$

NMZ009-TXZ055-230200-
NEW MEXICO-WEST TEXAS

CITY           SKY/WX    TMP DP  RH WIND       PRES   REMARKS
ALBUQUERQUE    CLOUDY    81  35  19 SW12      29.86S
EL PASO        PTCLDY    90  40  17 S12       29.79F
$$


........................KEY........................
SKY/WX - SKY CONDITION/WEATHER
TMP    - TEMPERATURE IN FAHRENHEIT
DP     - DEW POINT IN FAHRENHEIT
RH     - RELATIVE HUMIDITY IN PERCENT
WIND   - DIRECTION AND SPEED IN MILES PER HOUR (MPH)
VRB    - VARIABLE WIND DIRECTION
PRES   - MEAN SEA LEVEL PRESSURE IN INCHES OF MERCURY
         F - FALLING PRESSURE   R - RISING PRESSURE
         S - STEADY PRESSURE
VSB    - VISIBILITY IN MILES
HX     - HEAT INDEX IN FAHRENHEIT
WCI    - WIND CHILL INDEX IN FAHRENHEIT
TC     - TEMPERATURE IN CELSIUS WHICH IS ALSO KNOWN AS
         TEMPERATURE IN CENTIGRADE
AFB    - AIR FORCE BASE
         LUKE AFB IS LUKE AIR FORCE BASE
         DAVIS-MONTHAN IS DAVIS-MONTHAN AIR FORCE BASE
NAS    - NAVAL AIR STATION
         EL CENTRO NAS IS EL CENTRO NAVAL AIR STATION
N/A    - NOT AVAILABLE





USA.gov is the U.S. government's official web portal to all federal, state and local government web resources and services.